Regional Weather Roundup
Issued by NWS Charleston, SC

Current Version | Previous Version | Graphics & Text | Print | Product List | Glossary On
Versions: 1 2 3 4 5 6 7 8 9 10 11 12 13 14 15 16 17 18 19 20 21 22 23 24 25 26 27 28 29 30 31 32 33 34 35 36 37 38 39 40 41 42 43 44 45 46 47 48 49 50
000 ASUS42 KCHS 261328 RWRCHS REGIONAL WEATHER ROUNDUP NATIONAL WEATHER SERVICE CHARLESTON SC 900 AM EDT FRI AUG 26 2016 NOTE: "FAIR" INDICATES FEW OR NO CLOUDS BELOW 12,000 FEET WITH NO SIGNIFICANT WEATHER AND/OR OBSTRUCTIONS TO VISIBILITY. NOT ALL STATIONS ARE QUALITY CONTROLLED. USE DATA WITH CAUTION... ESPECIALLY DEWPOINT OBSERVATIONS. SCZ027-030-031-034>040-042>050-261400- ...SOUTHEAST SOUTH CAROLINA... CITY SKY/WX TMP DP RH WIND PRES REMARKS N CHARLESTON MOSUNNY 82 71 69 NE6 30.11R WATERFRONT PRK N/A 79 75 87 N6 30.08S MOUNT PLEASANT FAIR 81 73 78 CALM 30.11S JOHNS ISLAND FAIR 84 75 74 CALM 30.11S HX 92 PINOPOLIS N/A 82 75 78 CALM 30.05R MONCKS CORNER FAIR 79 73 83 CALM 30.11S SUMMERVILLE PTSUNNY 79 77 94 CALM 30.12F BEAUFORT MCAS SUNNY 79 73 82 N7 30.11S BEAUFORT ARPT FAIR 81 73 78 NE7 30.10S HILTON HEAD IS SUNNY 84 77 79 N9 30.10S HX 94 WALTERBORO MOSUNNY 81 77 89 N3 30.12S ALLENDALE CLOUDY 79 72 78 CALM 30.11S ...SOUTHERN MIDLANDS AND PEE DEE... CITY SKY/WX TMP DP RH WIND PRES REMARKS GEORGETOWN FAIR 79 72 78 CALM 30.12F KINGSTREE PTSUNNY 77 70 78 CALM 30.11F ORANGEBURG MOSUNNY 78 70 76 W3 30.12S BARNWELL NOT AVBL AIKEN FAIR 79 68 69 SW6 30.15S MANNING PTSUNNY 77 72 83 CALM 30.11F COLUMBIA SUNNY 79 69 71 CALM 30.10S SUMTER SUNNY 79 71 74 VRB2 30.08F FLORENCE SUNNY 80 72 76 SW5 30.11F MYRTLE BEACH PTSUNNY 81 66 61 N6 30.13S N MYRTLE BEACH MOSUNNY 78 72 81 N3 30.11S $$ GAZ063-065-086>088-099>101-113>116-118-119-134>141-150-261400- ...SOUTHEAST GEORGIA... CITY SKY/WX TMP DP RH WIND PRES REMARKS SAVANNAH ARPT MOSUNNY 78 71 79 N8 30.10S HUNTER AAF SUNNY 79 77 92 NE6 30.08R FORT STEWART SUNNY 78 72 82 N1 30.08R STATESBORO SUNNY 80 74 83 N3 30.11S SYLVANIA NOT AVBL CLAXTON FAIR 81 74 80 NE3 30.11S ...CSRA...CENTRAL AND FAR SOUTHEAST GEORGIA... CITY SKY/WX TMP DP RH WIND PRES REMARKS THOMSON SUNNY 82 73 74 MISG 30.15F AUGUSTA-BUSH PTSUNNY 76 71 85 SE3 30.11R AUGUSTA-DANIEL PTSUNNY 78 69 73 CALM 30.12S SWAINSBORO FAIR 81 72 74 CALM 30.12S VIDALIA SUNNY 79 77 94 NE3 30.11S EASTMAN FAIR 79 70 73 CALM 30.13R HAZLEHURST FAIR 80 77 90 CALM 30.10R ALMA SUNNY 77 72 84 VRB3 30.09F WAYCROSS N/A 81 77 88 E5 30.09R JESUP FAIR 81 77 89 NE6 30.09S BAXLEY FAIR 79 79 100 NE5 30.09S BRUNSWICK SUNNY 81 75 83 NE5 30.09S SAINT SIMONS MOSUNNY 81 74 79 N6 30.07S $$ SCZ027-028-034-036>038-045-046-048>050-GAZ119-141-261400- ...LAKE AND SUPPLEMENTAL COASTAL OBSERVATIONS... STATION/POSITION TIME TEMP WIND PRES WAVE SWELL AIR SEA DIR/SP/G HT/PER HT/PER/DIR (UTC) (F) (DEG/KT/KT) (MB) (FT/S) (FT/S/D) WINYAH BAY 1245 78 330/ 4 1019.0R LAKE MURRAY 1200 79 270/ 3/ 4 1018.6F ACE BASIN NERRS 1200 74 CALM 1020.0R FORT PULASKI 1300 80 85 10/ 8/ 10 1019.5R SAPELO ISLAND 1300 80 10/ 7 1019.0R $$ ANZ835-935-AMZ111-154-330-350-352-354-370-450-454-472-261400- ...C-MAN AND BUOY OBSERVATIONS... STATION/POSITION TIME TEMP WIND PRES WAVE SWELL AIR SEA DIR/SP/G HT/PER HT/PER/DIR (UTC) (F) (DEG/KT/KT) (MB) (FT/S) (FT/S/D) BUOY 41004 1250 82 83 30/ 10/ 14 1018.6R 3/ 7 2/100/ 7 BUOY 41008 1250 83 85 60/ 14/ 16 1018.4R 3/ 9 2/110/ 9 FOLLY BEACH CMAN 1300 81 20/ 7/ 8 1019.5F CAPERS NEARSHORE 1308 81 84 20/ 10/ 12 1019.3F FRIPP NEARSHORE 1308 82 86 40/ 10/ 12 1018.6R STATION/POSITION TIME TEMP WIND PRES WAVE SWELL AIR SEA DIR/SP/G HT/PER HT/PER/DIR (UTC) (F) (DEG/KT/KT) (MB) (FT/S) (FT/S/D) 5E ST. MARYS GA 1301 85 N/A 3/ 9 FRYING PAN BUOY 1300 82 84 20/ 8/ 10 1019.3R BUOY 41025 1250 82 84 330/ 4/ 6 1019.8S 3/ 8 2/ 90/ 8 CAPE LOOKOUT NC 1300 82 320/ 3/ 3 1019.1F BUOY 41002 1250 79 84 40/ 8/ 10 1017.2S 4/ 8 3/100/ 8 BUOY 41010 NOT AVBL ST AUGUSTINE FL 1300 80 83 40/ 13/ 14 1018.5R $$

USA.gov is the U.S. government's official web portal to all federal, state and local government web resources and services.